This demonstration page uses our WeatherBlox Daily Observations layout. Learn more.

Left ArrowRight Arrow

Hourly Observations for May 15, 2021

Temp ( °F °C ) Dew Point ( °F °C ) Humidity (%) Winds ( mph kmh ) Pressure ( in mb ) Visibility ( mi km ) Precip ( " mm )
12:53 am 00:53 Clear 52 11.1 49 9.4 89 89 Calm 30.23 1024 10 16 0.00 0.00
1:53 am 01:53 Clear 52 11.1 49 9.4 89 89 Calm 30.23 1024 10 16 0.00 0.00
2:53 am 02:53 Clear 51 10.6 48 8.9 89 89 Calm 30.22 1023 10 16 0.00 0.00
3:53 am 03:53 Clear 50 10 48 8.9 93 93 Calm 30.21 1023 10 16 0.00 0.00
4:53 am 04:53 Clear 49 9.4 47 8.3 93 93 Calm 30.22 1023 10 16 0.00 0.00
5:53 am 05:53 Clear 49 9.4 47 8.3 93 93 Calm 30.23 1024 10 16 0.00 0.00
6:53 am 06:53 Mostly Cloudy 48 8.9 46 7.8 93 93 Calm 30.27 1025 10 16 0.00 0.00
7:53 am 07:53 Mostly Sunny 54 12.2 51 10.6 90 90 N 3 6 30.29 1026 10 16 0.00 0.00
8:53 am 08:53 Sunny 59 15 52 11.1 78 78 Calm 30.29 1026 10 16 0.00 0.00
9:53 am 09:53 Mostly Sunny 66 18.9 52 11.1 61 61 Calm 30.30 1026 10 16 0.00 0.00
10:53 am 10:53 Sunny 69 20.6 46 7.8 44 44 VRB 5 7 30.28 1025 10 16 0.00 0.00
11:53 am 11:53 Sunny 72 22.2 45 7.2 38 38 WSW 8 13 30.29 1026 10 16 0.00 0.00
12:53 pm 12:53 Partly Cloudy 72 22.2 44 6.7 37 37 WNW 9 15 30.27 1025 10 16 0.00 0.00
1:53 pm 13:53 Mostly Sunny 74 23.3 43 6.1 33 33 SSE 8 13 30.25 1025 10 16 0.00 0.00
2:53 pm 14:53 Mostly Cloudy 75 23.9 43 6.1 32 32 N 6 9 30.22 1024 10 16 0.00 0.00
3:53 pm 15:53 Mostly Cloudy 76 24.4 42 5.6 30 30 Calm 30.20 1023 10 16 0.00 0.00
4:53 pm 16:53 Mostly Sunny 75 23.9 42 5.6 31 31 Calm 30.19 1022 10 16 0.00 0.00
5:53 pm 17:53 Sunny 75 23.9 43 6.1 32 32 SW 3 6 30.18 1022 10 16 0.00 0.00
6:53 pm 18:53 Mostly Sunny 75 23.9 42 5.6 31 31 S 3 6 30.16 1021 10 16 0.00 0.00
7:53 pm 19:53 Sunny 74 23.3 42 5.6 32 32 SW 5 7 30.16 1021 10 16 0.00 0.00
8:53 pm 20:53 Clear 66 18.9 49 9.4 54 54 Calm 30.17 1022 10 16 0.00 0.00
9:53 pm 21:53 Clear 62 16.7 52 11.1 70 70 Calm 30.19 1023 10 16 0.00 0.00
10:53 pm 22:53 Clear 59 15 53 11.7 81 81 Calm 30.20 1023 10 16 0.00 0.00
11:53 pm 23:53 Clear 57 13.9 52 11.1 83 83 Calm 30.19 1023 10 16 0.00 0.00

Powered by AerisWeather